Погода в Усть-Алексееве

Россия / Вологодская область     60°27′37″N   46°30′01″E
темп.,
°C
ветер,
м/с
пор.,
м/с
влажн.,
%
обл.,
%
осадки,
мм/ч
давл.,
гПа
погр.,
м
19 апреля, пн
пн1900:00−2в38760 0.0 1036221
03:00−3в27795 0.0 1037174
06:00−2в27710 0.0 1037215
09:00+3в35425 0.0 10371180
12:00+6вюв343613 0.0 10361522
15:00+7вюв33360 0.0 10351607
18:00+5в22530 0.0 103439
21:000вюв22680 0.0 103514
20 апреля, вт
вт2000:00−2ююв22740 0.0 103623
03:00−2ююв11770 0.0 103610
06:000ююв12670 0.0 103691
09:00+5юв22440 0.0 1035821
12:00+8ююв23365 0.0 10331336
15:00+9юв23364 0.0 10321366
18:00+7вюв24535 0.0 103078
21:00+2юв257136 0.0 103086
21 апреля, ср
ср2100:000юв27764 0.0 1029131
03:00−1вюв311747 0.0 1028220
06:00+2вюв4136189 0.0 1025543
09:00+7юв61445100 0.0 10231039
12:00+10юв71639100 0.0 10191402
15:00+9юв71842100 0.0 10171719
18:00+4юв71679100 0.1 10161184
21:00+3ююв71591100 0.2 1014989
22 апреля, чт
чт2200:00+3ююв61596100 0.2 1014878
03:00+3ююв61393100 0.3 10141003
06:00+4ю51187100 0.1 10151097
09:00+5ю51079100 0.2 10161014
12:00+9ю5116194 0.1 10161675
15:00+10ююз6116283 0.6 10161588
18:00+8ююз5117255 0.4 10171124
21:00+6ю5118549 0.6 1017690
23 апреля, пт
пт2300:00+5ююз4129334 0.0 1018497
03:00+4ю4109532 0.0 1020326
06:00+5ю399144 0.0 1020275
09:00+10ю47695 0.0 1021698
12:00+14ю575283 0.0 10201709
15:00+14ю5659100 0.3 10191217
18:00+12ю487019 0.7 1019483
21:00+9ююв31091100 1.6 1019256